Terug naar catalogus

STARLINK-4771

ActiefCommunicatieVLEO
NORAD 53833·PAYLOAD·🇺🇸 United States

Gelanceerd Sep 19, 2022 vanaf Cape Canaveral Space Force Station

Loading…

Volgende Passages (komende 24 uur)

TLE

VersSource: CelesTrak SupGP

Epoch: Sep 15, 2026, 02:58 UTC

1 53833C 22114R   26258.12409722  .00030812  00000+0  19330-2 0  2581
2 53833  53.1589 172.9621 0001672  86.1134 189.1264 15.08805485    18

Volg STARLINK-4771 in realtime met AllMySat

Download on the App Store